,,,PA_Meas_PMT16A,,PR_Meas_QMR101_102,,RH_Meas_QMH101,,SR_Meas_QMS101,,TA_Meas_QMH101,,GenWind,,GenWind,
date,time,status,PA,status,PR,status,RH,status,SR,status,TA,status,DirAvg,status,SpdAvg,
2009-09-26, 00:00:04,VALID,1009.38,VALID,0,VALID,98.6772,VALID,0,VALID,24.2007,VALID,116,VALID,0.210156,
2009-09-26, 00:01:04,VALID,1009.38,VALID,0,VALID,98.6772,VALID,0,VALID,24.2202,VALID,116,VALID,0.115625,
2009-09-26, 00:02:04,VALID,1009.34,VALID,0,VALID,98.7078,VALID,0,VALID,24.2202,VALID,116,VALID,0,
2009-09-26, 00:03:04,VALID,1009.32,VALID,0,VALID,98.6849,VALID,0,VALID,24.222,VALID,116,VALID,0,
2009-09-26, 00:04:04,VALID,1009.31,VALID,0,VALID,98.7001,VALID,0,VALID,24.2202,VALID,116,VALID,0,
2009-09-26, 00:05:04,VALID,1009.26,VALID,0,VALID,98.7078,VALID,0,VALID,24.222,VALID,116,VALID,0,
2009-09-26, 00:06:04,VALID,1009.28,VALID,0,VALID,98.7154,VALID,0,VALID,24.2202,VALID,116,VALID,0,
2009-09-26, 00:07:04,VALID,1009.28,VALID,0,VALID,98.7001,VALID,0,VALID,24.2007,VALID,116,VALID,0,
2009-09-26, 00:08:04,VALID,1009.3,VALID,0,VALID,98.723,VALID,0,VALID,24.222,VALID,116,VALID,0,
2009-09-26, 00:09:04,VALID,1009.34,VALID,0,VALID,98.7154,VALID,0,VALID,24.222,VALID,116,VALID,0,
2009-09-26, 00:10:04,VALID,1009.33,VALID,0,VALID,98.723,VALID,0,VALID,24.2415,VALID,116,VALID,0,
2009-09-26, 00:11:04,VALID,1009.35,VALID,0,VALID,98.7611,VALID,0,VALID,24.261,VALID,116,VALID,0.192188,
2009-09-26, 00:12:04,VALID,1009.29,VALID,0,VALID,98.7764,VALID,0,VALID,24.261,VALID,116,VALID,0.36875,
2009-09-26, 00:13:04,VALID,1009.31,VALID,0,VALID,98.7688,VALID,0,VALID,24.2396,VALID,116,VALID,0.416797,
2009-09-26, 00:14:04,VALID,1009.29,VALID,0,VALID,98.7383,VALID,0.105969,VALID,24.2202,VALID,116,VALID,0.324219,
2009-09-26, 00:15:04,VALID,1009.28,VALID,0,VALID,98.723,VALID,0.105969,VALID,24.2202,VALID,116,VALID,0.258984,
2009-09-26, 00:16:04,VALID,1009.31,VALID,0,VALID,98.7383,VALID,0.105969,VALID,24.2202,VALID,116,VALID,0.0507813,
2009-09-26, 00:17:04,VALID,1009.31,VALID,0,VALID,98.7383,VALID,0.105969,VALID,24.2396,VALID,116,VALID,0,
2009-09-26, 00:18:04,VALID,1009.31,VALID,0,VALID,98.7611,VALID,0,VALID,24.2396,VALID,116,VALID,0.0109375,
2009-09-26, 00:19:04,VALID,1009.27,VALID,0,VALID,98.7916,VALID,0,VALID,24.2202,VALID,116,VALID,0.269141,
2009-09-26, 00:20:04,VALID,1009.26,VALID,0,VALID,98.7916,VALID,0,VALID,24.2202,VALID,116,VALID,0,
2009-09-26, 00:21:04,VALID,1009.27,VALID,0,VALID,98.8069,VALID,0.105969,VALID,24.2202,VALID,116,VALID,0,
2009-09-26, 00:22:04,VALID,1009.25,VALID,0,VALID,98.8145,VALID,0,VALID,24.2007,VALID,116,VALID,0,
2009-09-26, 00:23:04,VALID,1009.23,VALID,0,VALID,98.7916,VALID,0.105969,VALID,24.1599,VALID,116,VALID,0,
2009-09-26, 00:24:04,VALID,1009.2,VALID,0,VALID,98.7611,VALID,0.105969,VALID,24.1617,VALID,116,VALID,0,
2009-09-26, 00:25:04,VALID,1009.15,VALID,0,VALID,98.7611,VALID,0,VALID,24.1422,VALID,116,VALID,0,
2009-09-26, 00:26:04,VALID,1009.18,VALID,0,VALID,98.7535,VALID,0,VALID,24.1422,VALID,116,VALID,0,
2009-09-26, 00:27:04,VALID,1009.15,VALID,0,VALID,98.7535,VALID,0.105969,VALID,24.1422,VALID,116,VALID,0,
2009-09-26, 00:28:04,VALID,1009.19,VALID,0,VALID,98.7688,VALID,0,VALID,24.1227,VALID,116,VALID,0,
2009-09-26, 00:29:04,VALID,1009.19,VALID,0,VALID,98.7764,VALID,0.105969,VALID,24.1227,VALID,116,VALID,0,
2009-09-26, 00:30:04,VALID,1009.21,VALID,0,VALID,98.7764,VALID,0,VALID,24.1227,VALID,116,VALID,0,
2009-09-26, 00:31:04,VALID,1009.17,VALID,0,VALID,98.784,VALID,0.105969,VALID,24.1227,VALID,116,VALID,0,
2009-09-26, 00:32:04,VALID,1009.17,VALID,0,VALID,98.8221,VALID,0.105969,VALID,24.1227,VALID,116,VALID,0,
2009-09-26, 00:33:04,VALID,1009.12,VALID,0,VALID,98.8145,VALID,0,VALID,24.1032,VALID,116,VALID,0,
2009-09-26, 00:34:04,VALID,1009.15,VALID,0,VALID,98.8374,VALID,0.105969,VALID,24.1032,VALID,116,VALID,0,
2009-09-26, 00:35:04,VALID,1009.13,VALID,0,VALID,98.8679,VALID,0,VALID,24.0837,VALID,116,VALID,0,
2009-09-26, 00:36:04,VALID,1009.14,VALID,0,VALID,98.8679,VALID,0.105969,VALID,24.0837,VALID,116,VALID,0,
2009-09-26, 00:37:04,VALID,1009.1,VALID,0,VALID,98.906,VALID,0,VALID,24.0643,VALID,116,VALID,0,
2009-09-26, 00:38:04,VALID,1009.09,VALID,0,VALID,98.9137,VALID,0,VALID,24.0624,VALID,116,VALID,0,
2009-09-26, 00:39:04,VALID,1009.08,VALID,0,VALID,98.9289,VALID,0,VALID,24.0643,VALID,116,VALID,0,
2009-09-26, 00:40:04,VALID,1009.08,VALID,0,VALID,98.9365,VALID,0.105969,VALID,24.0429,VALID,116,VALID,0,
2009-09-26, 00:41:04,VALID,1009.07,VALID,0,VALID,98.9747,VALID,0,VALID,24.0448,VALID,116,VALID,0,
2009-09-26, 00:42:04,VALID,1009.07,VALID,0,VALID,98.967,VALID,0.105969,VALID,24.0235,VALID,116,VALID,0,
2009-09-26, 00:43:04,VALID,1009.08,VALID,0,VALID,98.9899,VALID,0.105969,VALID,24.0253,VALID,116,VALID,0,
2009-09-26, 00:44:04,VALID,1009.07,VALID,0,VALID,99.0128,VALID,0.105969,VALID,24.0058,VALID,116,VALID,0,
2009-09-26, 00:45:04,VALID,1009.06,VALID,0,VALID,99.0052,VALID,0.105969,VALID,24.004,VALID,116,VALID,0,
2009-09-26, 00:46:04,VALID,1009.01,VALID,0,VALID,99.0128,VALID,0,VALID,24.0058,VALID,116,VALID,0,
2009-09-26, 00:47:04,VALID,1009.02,VALID,0,VALID,99.0052,VALID,0,VALID,23.9845,VALID,116,VALID,0,
2009-09-26, 00:48:04,VALID,1009.02,VALID,0,VALID,99.0204,VALID,0,VALID,24.0058,VALID,116,VALID,0,
2009-09-26, 00:49:04,VALID,1009.01,VALID,0,VALID,99.0052,VALID,0.105969,VALID,23.965,VALID,116,VALID,0,
2009-09-26, 00:50:04,VALID,1009.03,VALID,0,VALID,99.0128,VALID,0.105969,VALID,23.9668,VALID,113,VALID,0,
2009-09-26, 00:51:04,VALID,1009.06,VALID,0,VALID,99.0052,VALID,0.105969,VALID,23.926,VALID,19,VALID,0,
2009-09-26, 00:52:04,VALID,1009.06,VALID,0,VALID,99.0128,VALID,0.105969,VALID,23.9473,VALID,19,VALID,0,
2009-09-26, 00:53:04,VALID,1009.04,VALID,0,VALID,99.028,VALID,0.105969,VALID,23.9278,VALID,19,VALID,0,
2009-09-26, 00:54:04,VALID,1009.06,VALID,0,VALID,99.0357,VALID,0,VALID,23.8871,VALID,19,VALID,0,
2009-09-26, 00:55:04,VALID,1009.05,VALID,0,VALID,99.028,VALID,0.105969,VALID,23.8871,VALID,19,VALID,0,
2009-09-26, 00:56:04,VALID,1009.07,VALID,0,VALID,99.028,VALID,0.105969,VALID,23.8676,VALID,19,VALID,0,
2009-09-26, 00:57:04,VALID,1009.06,VALID,0,VALID,99.0052,VALID,0.105969,VALID,23.8694,VALID,19,VALID,0,
2009-09-26, 00:58:04,VALID,1009.08,VALID,0,VALID,99.0052,VALID,0.105969,VALID,23.8286,VALID,19,VALID,0,
2009-09-26, 00:59:04,VALID,1009.06,VALID,0,VALID,99.0204,VALID,0,VALID,23.8109,VALID,19,VALID,0,
2009-09-26, 01:00:04,VALID,1009.03,VALID,0,VALID,99.0204,VALID,0,VALID,23.8304,VALID,19,VALID,0,
2009-09-26, 01:01:04,VALID,1009.05,VALID,0,VALID,99.0357,VALID,0,VALID,23.8109,VALID,19,VALID,0,
2009-09-26, 01:02:04,VALID,1009.05,VALID,0,VALID,99.0662,VALID,0,VALID,23.8109,VALID,19,VALID,0,
2009-09-26, 01:03:04,VALID,1009.08,VALID,0,VALID,99.0738,VALID,0,VALID,23.8109,VALID,19,VALID,0,
2009-09-26, 01:04:04,VALID,1009.07,VALID,0,VALID,99.089,VALID,0,VALID,23.7914,VALID,19,VALID,0,
2009-09-26, 01:05:04,VALID,1009.09,VALID,0,VALID,99.1043,VALID,0,VALID,23.7914,VALID,9,VALID,0,
2009-09-26, 01:06:04,VALID,1009.11,VALID,0,VALID,99.1119,VALID,0,VALID,23.8127,VALID,360,VALID,0.747266,
2009-09-26, 01:07:04,VALID,1009.11,VALID,0,VALID,99.1577,VALID,0,VALID,23.7914,VALID,356,VALID,0.683594,
2009-09-26, 01:08:04,VALID,1009.1,VALID,0,VALID,99.1653,VALID,0,VALID,23.8127,VALID,356,VALID,0.575,
2009-09-26, 01:09:04,VALID,1009.08,VALID,0,VALID,99.1577,VALID,0,VALID,23.7914,VALID,356,VALID,0.711328,
2009-09-26, 01:10:04,VALID,1009.07,VALID,0,VALID,99.15,VALID,0,VALID,23.7932,VALID,2,VALID,0.71875,
2009-09-26, 01:11:04,VALID,1009.07,VALID,0,VALID,99.1729,VALID,0,VALID,23.7525,VALID,7,VALID,0.734766,
2009-09-26, 01:12:04,VALID,1009.06,VALID,0,VALID,99.1805,VALID,0,VALID,23.7525,VALID,6,VALID,0.603906,
2009-09-26, 01:13:04,VALID,1009.05,VALID,0,VALID,99.1805,VALID,0,VALID,23.7738,VALID,6,VALID,0.447266,
2009-09-26, 01:14:04,VALID,1009.01,VALID,0,VALID,99.1805,VALID,0.105969,VALID,23.7525,VALID,11,VALID,0.348437,
2009-09-26, 01:15:04,VALID,1009,VALID,0,VALID,99.2034,VALID,0.105969,VALID,23.7507,VALID,11,VALID,0.317578,
2009-09-26, 01:16:04,VALID,1008.99,VALID,0,VALID,99.2034,VALID,0.105969,VALID,23.7525,VALID,11,VALID,0.354297,
2009-09-26, 01:17:04,VALID,1009,VALID,0,VALID,99.2111,VALID,0.105969,VALID,23.7525,VALID,43,VALID,0.469141,
2009-09-26, 01:18:04,VALID,1008.97,VALID,0,VALID,99.2187,VALID,0.105969,VALID,23.7312,VALID,42,VALID,0.346094,
2009-09-26, 01:19:04,VALID,1008.99,VALID,0,VALID,99.2263,VALID,0.105969,VALID,23.7117,VALID,43,VALID,0.401172,
2009-09-26, 01:20:04,VALID,1009,VALID,0,VALID,99.2111,VALID,0,VALID,23.6922,VALID,43,VALID,0.312109,
2009-09-26, 01:21:04,VALID,1008.97,VALID,0,VALID,99.2187,VALID,0,VALID,23.6745,VALID,43,VALID,0,
2009-09-26, 01:22:04,VALID,1008.99,VALID,0,VALID,99.2111,VALID,0.105969,VALID,23.694,VALID,43,VALID,0,
2009-09-26, 01:23:04,VALID,1008.96,VALID,0,VALID,99.2187,VALID,0.105969,VALID,23.6745,VALID,43,VALID,0.139062,
2009-09-26, 01:24:04,VALID,1008.96,VALID,0,VALID,99.2111,VALID,0.105969,VALID,23.6727,VALID,18,VALID,0.522266,
2009-09-26, 01:25:04,VALID,1008.97,VALID,0,VALID,99.2034,VALID,0.105969,VALID,23.6727,VALID,1,VALID,0.462891,
2009-09-26, 01:26:04,VALID,1008.95,VALID,0,VALID,99.2111,VALID,0.105969,VALID,23.6922,VALID,1,VALID,0.151172,
2009-09-26, 01:27:04,VALID,1008.95,VALID,0,VALID,99.2263,VALID,0.105969,VALID,23.6727,VALID,1,VALID,0.0535156,
2009-09-26, 01:28:04,VALID,1008.9,VALID,0,VALID,99.2263,VALID,0,VALID,23.6532,VALID,1,VALID,0.272656,
2009-09-26, 01:29:04,VALID,1008.9,VALID,0,VALID,99.2263,VALID,0.105969,VALID,23.6727,VALID,1,VALID,0.234766,
2009-09-26, 01:30:04,VALID,1008.87,VALID,0,VALID,99.2568,VALID,0.105969,VALID,23.6532,VALID,1,VALID,0.335938,
2009-09-26, 01:31:04,VALID,1008.86,VALID,0,VALID,99.2416,VALID,0.105969,VALID,23.6532,VALID,1,VALID,0.409766,
2009-09-26, 01:32:04,VALID,1008.86,VALID,0,VALID,99.2339,VALID,0.105969,VALID,23.6532,VALID,1,VALID,0.298438,
2009-09-26, 01:33:04,VALID,1008.83,VALID,0,VALID,99.2568,VALID,0.105969,VALID,23.6143,VALID,1,VALID,0.551562,
2009-09-26, 01:34:04,VALID,1008.82,VALID,0,VALID,99.2492,VALID,0.105969,VALID,23.6143,VALID,1,VALID,0.373828,
2009-09-26, 01:35:04,VALID,1008.8,VALID,0,VALID,99.2644,VALID,0.105969,VALID,23.5948,VALID,1,VALID,0.321875,
2009-09-26, 01:36:04,VALID,1008.84,VALID,0,VALID,99.2568,VALID,0.105969,VALID,23.6161,VALID,1,VALID,0.260156,
2009-09-26, 01:37:04,VALID,1008.82,VALID,0,VALID,99.2568,VALID,0.105969,VALID,23.5948,VALID,1,VALID,0.0792969,
2009-09-26, 01:38:04,VALID,1008.8,VALID,0,VALID,99.2644,VALID,0.105969,VALID,23.5948,VALID,1,VALID,0,
2009-09-26, 01:39:04,VALID,1008.79,VALID,0,VALID,99.2568,VALID,0.105969,VALID,23.5966,VALID,1,VALID,0,
2009-09-26, 01:40:04,VALID,1008.79,VALID,0,VALID,99.2644,VALID,0.105969,VALID,23.5771,VALID,1,VALID,0,
2009-09-26, 01:41:04,VALID,1008.77,VALID,0,VALID,99.2721,VALID,0.105969,VALID,23.5771,VALID,1,VALID,0,
2009-09-26, 01:42:04,VALID,1008.75,VALID,0,VALID,99.2721,VALID,0.105969,VALID,23.5558,VALID,1,VALID,0.121875,
2009-09-26, 01:43:04,VALID,1008.73,VALID,0,VALID,99.2568,VALID,0.105969,VALID,23.5558,VALID,1,VALID,0,
2009-09-26, 01:44:04,VALID,1008.73,VALID,0,VALID,99.2644,VALID,0,VALID,23.5558,VALID,1,VALID,0,
2009-09-26, 01:45:04,VALID,1008.72,VALID,0,VALID,99.2644,VALID,0.105969,VALID,23.5558,VALID,1,VALID,0,
2009-09-26, 01:46:04,VALID,1008.74,VALID,0,VALID,99.2797,VALID,0.105969,VALID,23.5576,VALID,1,VALID,0,
2009-09-26, 01:47:04,VALID,1008.75,VALID,0,VALID,99.2797,VALID,0.105969,VALID,23.5363,VALID,1,VALID,0,
2009-09-26, 01:48:04,VALID,1008.75,VALID,0,VALID,99.3026,VALID,0.105969,VALID,23.5363,VALID,1,VALID,0,
2009-09-26, 01:49:04,VALID,1008.76,VALID,0,VALID,99.3026,VALID,0.105969,VALID,23.5363,VALID,1,VALID,0,
2009-09-26, 01:50:04,VALID,1008.79,VALID,0,VALID,99.2949,VALID,0.105969,VALID,23.5576,VALID,1,VALID,0,
2009-09-26, 01:51:04,VALID,1008.77,VALID,0,VALID,99.3026,VALID,0.105969,VALID,23.5381,VALID,1,VALID,0,
2009-09-26, 01:52:04,VALID,1008.79,VALID,0,VALID,99.3026,VALID,0.105969,VALID,23.5169,VALID,1,VALID,0,
2009-09-26, 01:53:04,VALID,1008.78,VALID,0,VALID,99.3178,VALID,0.105969,VALID,23.5381,VALID,1,VALID,0,
2009-09-26, 01:54:04,VALID,1008.76,VALID,0,VALID,99.3178,VALID,0.105969,VALID,23.4974,VALID,1,VALID,0,
2009-09-26, 01:55:04,VALID,1008.77,VALID,0,VALID,99.3178,VALID,0.105969,VALID,23.4974,VALID,1,VALID,0,
2009-09-26, 01:56:04,VALID,1008.76,VALID,0,VALID,99.3254,VALID,0.105969,VALID,23.4779,VALID,1,VALID,0,
2009-09-26, 01:57:04,VALID,1008.73,VALID,0,VALID,99.3407,VALID,0.105969,VALID,23.4584,VALID,1,VALID,0,
2009-09-26, 01:58:04,VALID,1008.75,VALID,0,VALID,99.3254,VALID,0.105969,VALID,23.4602,VALID,1,VALID,0,
2009-09-26, 01:59:04,VALID,1008.73,VALID,0,VALID,99.3254,VALID,0,VALID,23.462,VALID,1,VALID,0.107031,
2009-09-26, 02:00:04,VALID,1008.74,VALID,0,VALID,99.3407,VALID,0,VALID,23.462,VALID,2,VALID,0.148828,
2009-09-26, 02:01:04,VALID,1008.75,VALID,0,VALID,99.3331,VALID,0,VALID,23.4425,VALID,2,VALID,0.251953,
2009-09-26, 02:02:04,VALID,1008.73,VALID,0,VALID,99.3331,VALID,0,VALID,23.4425,VALID,2,VALID,0.119531,
2009-09-26, 02:03:04,VALID,1008.76,VALID,0,VALID,99.3331,VALID,0,VALID,23.423,VALID,2,VALID,0.219922,
2009-09-26, 02:04:04,VALID,1008.76,VALID,0,VALID,99.3254,VALID,0,VALID,23.423,VALID,2,VALID,0.283984,
2009-09-26, 02:05:04,VALID,1008.76,VALID,0,VALID,99.3102,VALID,0,VALID,23.423,VALID,2,VALID,0.441797,
2009-09-26, 02:06:04,VALID,1008.74,VALID,0,VALID,99.3254,VALID,0,VALID,23.4425,VALID,2,VALID,0.26875,
2009-09-26, 02:07:04,VALID,1008.77,VALID,0,VALID,99.3559,VALID,0,VALID,23.4425,VALID,2,VALID,0.152344,
2009-09-26, 02:08:04,VALID,1008.78,VALID,0,VALID,99.3407,VALID,0,VALID,23.423,VALID,2,VALID,0,
2009-09-26, 02:09:04,VALID,1008.76,VALID,0,VALID,99.3254,VALID,0,VALID,23.423,VALID,2,VALID,0,
2009-09-26, 02:10:04,VALID,1008.77,VALID,0,VALID,99.3483,VALID,0,VALID,23.3823,VALID,2,VALID,0,
2009-09-26, 02:11:04,VALID,1008.77,VALID,0,VALID,99.3407,VALID,0,VALID,23.4248,VALID,2,VALID,0,
2009-09-26, 02:12:04,VALID,1008.81,VALID,0,VALID,99.3483,VALID,0,VALID,23.4035,VALID,2,VALID,0,
2009-09-26, 02:13:04,VALID,1008.79,VALID,0,VALID,99.3483,VALID,0,VALID,23.4035,VALID,2,VALID,0,
2009-09-26, 02:14:04,VALID,1008.76,VALID,0,VALID,99.3559,VALID,0,VALID,23.4212,VALID,2,VALID,0,
2009-09-26, 02:15:04,VALID,1008.79,VALID,0,VALID,99.3559,VALID,0.105969,VALID,23.4017,VALID,2,VALID,0,
2009-09-26, 02:16:04,VALID,1008.78,VALID,0,VALID,99.3636,VALID,0,VALID,23.4017,VALID,2,VALID,0,
2009-09-26, 02:17:04,VALID,1008.77,VALID,0,VALID,99.3712,VALID,0,VALID,23.4017,VALID,2,VALID,0,
2009-09-26, 02:18:04,VALID,1008.72,VALID,0,VALID,99.3636,VALID,0,VALID,23.4017,VALID,2,VALID,0,
2009-09-26, 02:19:04,VALID,1008.72,VALID,0,VALID,99.3559,VALID,0,VALID,23.4017,VALID,2,VALID,0,
2009-09-26, 02:20:04,VALID,1008.71,VALID,0,VALID,99.3712,VALID,0,VALID,23.4017,VALID,2,VALID,0,
2009-09-26, 02:21:04,VALID,1008.7,VALID,0,VALID,99.3712,VALID,0.105969,VALID,23.3823,VALID,2,VALID,0.00195313,
2009-09-26, 02:22:04,VALID,1008.71,VALID,0,VALID,99.3559,VALID,0,VALID,23.4017,VALID,2,VALID,0,
2009-09-26, 02:23:04,VALID,1008.7,VALID,0,VALID,99.3636,VALID,0,VALID,23.4017,VALID,2,VALID,0.0539063,
2009-09-26, 02:24:04,VALID,1008.65,VALID,0,VALID,99.3636,VALID,0.105969,VALID,23.4212,VALID,2,VALID,0,
2009-09-26, 02:25:04,VALID,1008.61,VALID,0,VALID,99.3636,VALID,0,VALID,23.4407,VALID,2,VALID,0.165625,
2009-09-26, 02:26:04,VALID,1008.61,VALID,0,VALID,99.4017,VALID,0,VALID,23.4017,VALID,2,VALID,0.248437,
2009-09-26, 02:27:04,VALID,1008.59,VALID,0,VALID,99.3864,VALID,0.105969,VALID,23.4212,VALID,2,VALID,0,
2009-09-26, 02:28:04,VALID,1008.57,VALID,0,VALID,99.4017,VALID,0,VALID,23.4,VALID,2,VALID,0,
2009-09-26, 02:29:04,VALID,1008.61,VALID,0,VALID,99.3788,VALID,0,VALID,23.4017,VALID,2,VALID,0,
2009-09-26, 02:30:04,VALID,1008.6,VALID,0,VALID,99.3864,VALID,0,VALID,23.423,VALID,2,VALID,0,
2009-09-26, 02:31:04,VALID,1008.59,VALID,0,VALID,99.4017,VALID,0.105969,VALID,23.4017,VALID,2,VALID,0,
2009-09-26, 02:32:04,VALID,1008.57,VALID,0,VALID,99.3788,VALID,0,VALID,23.4017,VALID,2,VALID,0,
2009-09-26, 02:33:04,VALID,1008.58,VALID,0,VALID,99.3864,VALID,0,VALID,23.4017,VALID,2,VALID,0,
2009-09-26, 02:34:04,VALID,1008.59,VALID,0,VALID,99.3712,VALID,0,VALID,23.3823,VALID,2,VALID,0,
2009-09-26, 02:35:04,VALID,1008.58,VALID,0,VALID,99.3788,VALID,0.105969,VALID,23.3823,VALID,2,VALID,0,
2009-09-26, 02:36:04,VALID,1008.6,VALID,0,VALID,99.3788,VALID,0,VALID,23.3628,VALID,2,VALID,0,
2009-09-26, 02:37:04,VALID,1008.57,VALID,0,VALID,99.3864,VALID,0,VALID,23.3628,VALID,2,VALID,0,
2009-09-26, 02:38:04,VALID,1008.58,VALID,0,VALID,99.3712,VALID,0,VALID,23.3823,VALID,2,VALID,0,
2009-09-26, 02:39:04,VALID,1008.58,VALID,0,VALID,99.3864,VALID,0.105969,VALID,23.3823,VALID,2,VALID,0,
2009-09-26, 02:40:04,VALID,1008.58,VALID,0,VALID,99.3712,VALID,0,VALID,23.3823,VALID,2,VALID,0,
2009-09-26, 02:41:04,VALID,1008.57,VALID,0,VALID,99.3788,VALID,0,VALID,23.3823,VALID,2,VALID,0,
2009-09-26, 02:42:04,VALID,1008.59,VALID,0,VALID,99.3941,VALID,0,VALID,23.3628,VALID,2,VALID,0,
2009-09-26, 02:43:04,VALID,1008.57,VALID,0,VALID,99.3864,VALID,0,VALID,23.3628,VALID,2,VALID,0,
2009-09-26, 02:44:04,VALID,1008.59,VALID,0,VALID,99.3788,VALID,0,VALID,23.3823,VALID,2,VALID,0,
2009-09-26, 02:45:04,VALID,1008.57,VALID,0,VALID,99.3712,VALID,0,VALID,23.3805,VALID,2,VALID,0.404687,
2009-09-26, 02:46:04,VALID,1008.58,VALID,0,VALID,99.3559,VALID,0.105969,VALID,23.4017,VALID,351,VALID,0.516797,
2009-09-26, 02:47:04,VALID,1008.59,VALID,0,VALID,99.3712,VALID,0.105969,VALID,23.4212,VALID,351,VALID,0.241797,
2009-09-26, 02:48:04,VALID,1008.59,VALID,0,VALID,99.3864,VALID,0,VALID,23.4,VALID,351,VALID,0,
2009-09-26, 02:49:04,VALID,1008.6,VALID,0,VALID,99.3864,VALID,0,VALID,23.4017,VALID,351,VALID,0,
2009-09-26, 02:50:04,VALID,1008.58,VALID,0,VALID,99.3788,VALID,0,VALID,23.3415,VALID,351,VALID,0,
2009-09-26, 02:51:04,VALID,1008.57,VALID,0,VALID,99.3864,VALID,0.105969,VALID,23.361,VALID,351,VALID,0,
2009-09-26, 02:52:04,VALID,1008.56,VALID,0,VALID,99.3864,VALID,0.105969,VALID,23.3805,VALID,351,VALID,0.260156,
2009-09-26, 02:53:04,VALID,1008.59,VALID,0,VALID,99.3941,VALID,0,VALID,23.3823,VALID,351,VALID,0.00585938,
2009-09-26, 02:54:04,VALID,1008.6,VALID,0,VALID,99.3559,VALID,0,VALID,23.4017,VALID,351,VALID,0,
2009-09-26, 02:55:04,VALID,1008.59,VALID,0,VALID,99.3941,VALID,0.105969,VALID,23.3805,VALID,351,VALID,0.25,
2009-09-26, 02:56:04,VALID,1008.59,VALID,0,VALID,99.3788,VALID,0.105969,VALID,23.4017,VALID,351,VALID,0.288672,
2009-09-26, 02:57:04,VALID,1008.58,VALID,0,VALID,99.3864,VALID,0.105969,VALID,23.3805,VALID,344,VALID,0.423828,
2009-09-26, 02:58:04,VALID,1008.58,VALID,0,VALID,99.4017,VALID,0,VALID,23.3823,VALID,344,VALID,0.314453,
2009-09-26, 02:59:04,VALID,1008.62,VALID,0,VALID,99.4017,VALID,0.105969,VALID,23.3823,VALID,359,VALID,0.551172,
2009-09-26, 03:00:04,VALID,1008.6,VALID,0,VALID,99.3941,VALID,0,VALID,23.3823,VALID,359,VALID,0.264062,
2009-09-26, 03:01:04,VALID,1008.6,VALID,0,VALID,99.4017,VALID,0.105969,VALID,23.361,VALID,359,VALID,0.161719,
2009-09-26, 03:02:04,VALID,1008.61,VALID,0,VALID,99.3864,VALID,0.105969,VALID,23.3823,VALID,359,VALID,0.182422,
2009-09-26, 03:03:04,VALID,1008.62,VALID,0,VALID,99.3941,VALID,0.105969,VALID,23.361,VALID,359,VALID,0,
2009-09-26, 03:04:04,VALID,1008.64,VALID,0,VALID,99.3864,VALID,0,VALID,23.3628,VALID,359,VALID,0.0621094,
2009-09-26, 03:05:04,VALID,1008.67,VALID,0,VALID,99.4093,VALID,0.105969,VALID,23.322,VALID,359,VALID,0.078125,
2009-09-26, 03:06:04,VALID,1008.68,VALID,0,VALID,99.4169,VALID,0,VALID,23.3433,VALID,359,VALID,0,
2009-09-26, 03:07:04,VALID,1008.68,VALID,0,VALID,99.4169,VALID,0,VALID,23.3433,VALID,359,VALID,0,
2009-09-26, 03:08:04,VALID,1008.69,VALID,0,VALID,99.4169,VALID,0.105969,VALID,23.3628,VALID,359,VALID,0,
2009-09-26, 03:09:04,VALID,1008.7,VALID,0,VALID,99.4017,VALID,0,VALID,23.3433,VALID,359,VALID,0,
2009-09-26, 03:10:04,VALID,1008.71,VALID,0,VALID,99.3864,VALID,0,VALID,23.3628,VALID,359,VALID,0,
2009-09-26, 03:11:04,VALID,1008.74,VALID,0,VALID,99.3941,VALID,0,VALID,23.322,VALID,359,VALID,0,
2009-09-26, 03:12:04,VALID,1008.77,VALID,0,VALID,99.3941,VALID,0,VALID,23.322,VALID,359,VALID,0,
2009-09-26, 03:13:04,VALID,1008.79,VALID,0,VALID,99.3864,VALID,0.105969,VALID,23.3415,VALID,359,VALID,0,
2009-09-26, 03:14:04,VALID,1008.8,VALID,0,VALID,99.3864,VALID,0,VALID,23.322,VALID,359,VALID,0,
2009-09-26, 03:15:04,VALID,1008.81,VALID,0,VALID,99.3864,VALID,0,VALID,23.3433,VALID,359,VALID,0,
2009-09-26, 03:16:04,VALID,1008.86,VALID,0,VALID,99.4169,VALID,0.105969,VALID,23.3433,VALID,359,VALID,0,
2009-09-26, 03:17:04,VALID,1008.87,VALID,0,VALID,99.4017,VALID,0.105969,VALID,23.3433,VALID,359,VALID,0,
2009-09-26, 03:18:04,VALID,1008.87,VALID,0,VALID,99.4169,VALID,0.105969,VALID,23.3433,VALID,359,VALID,0,
2009-09-26, 03:19:04,VALID,1008.88,VALID,0,VALID,99.3864,VALID,0.105969,VALID,23.3238,VALID,359,VALID,0,
2009-09-26, 03:20:04,VALID,1008.87,VALID,0,VALID,99.3864,VALID,0.105969,VALID,23.3238,VALID,359,VALID,0,
2009-09-26, 03:21:04,VALID,1008.88,VALID,0,VALID,99.3864,VALID,0,VALID,23.3043,VALID,359,VALID,0,
2009-09-26, 03:22:04,VALID,1008.91,VALID,0,VALID,99.4093,VALID,0.105969,VALID,23.3043,VALID,359,VALID,0,
2009-09-26, 03:23:04,VALID,1008.92,VALID,0,VALID,99.4169,VALID,0.105969,VALID,23.3043,VALID,359,VALID,0,
2009-09-26, 03:24:04,VALID,1008.94,VALID,0,VALID,99.4017,VALID,0,VALID,23.3043,VALID,359,VALID,0,
2009-09-26, 03:25:04,VALID,1008.95,VALID,0,VALID,99.4017,VALID,0.105969,VALID,23.3043,VALID,359,VALID,0,
2009-09-26, 03:26:04,VALID,1008.96,VALID,0,VALID,99.3864,VALID,0,VALID,23.3238,VALID,359,VALID,0,
2009-09-26, 03:27:04,VALID,1008.95,VALID,0,VALID,99.3864,VALID,0,VALID,23.2831,VALID,359,VALID,0,
2009-09-26, 03:28:04,VALID,1008.95,VALID,0,VALID,99.4169,VALID,0.105969,VALID,23.3043,VALID,359,VALID,0,
2009-09-26, 03:29:04,VALID,1008.92,VALID,0,VALID,99.4169,VALID,0,VALID,23.2866,VALID,359,VALID,0,
2009-09-26, 03:30:04,VALID,1008.91,VALID,0,VALID,99.4169,VALID,0,VALID,23.2866,VALID,359,VALID,0,
2009-09-26, 03:31:04,VALID,1008.92,VALID,0,VALID,99.4246,VALID,0,VALID,23.2459,VALID,359,VALID,0,
2009-09-26, 03:32:04,VALID,1008.94,VALID,0,VALID,99.3941,VALID,0,VALID,23.2671,VALID,11,VALID,0,
2009-09-26, 03:33:04,VALID,1008.93,VALID,0,VALID,99.4169,VALID,0,VALID,23.2671,VALID,11,VALID,0,
2009-09-26, 03:34:04,VALID,1008.98,VALID,0,VALID,99.4169,VALID,0,VALID,23.2459,VALID,11,VALID,0,
2009-09-26, 03:35:04,VALID,1008.94,VALID,0,VALID,99.4169,VALID,0,VALID,23.2671,VALID,11,VALID,0,
2009-09-26, 03:36:04,VALID,1008.94,VALID,0,VALID,99.4017,VALID,0,VALID,23.2654,VALID,11,VALID,0,
2009-09-26, 03:37:04,VALID,1008.95,VALID,0,VALID,99.4093,VALID,0,VALID,23.2866,VALID,11,VALID,0,
2009-09-26, 03:38:04,VALID,1008.96,VALID,0,VALID,99.3788,VALID,0,VALID,23.2866,VALID,11,VALID,0,
2009-09-26, 03:39:04,VALID,1008.97,VALID,0,VALID,99.4017,VALID,0,VALID,23.2866,VALID,11,VALID,0,
2009-09-26, 03:40:04,VALID,1008.97,VALID,0,VALID,99.4246,VALID,0,VALID,23.2866,VALID,11,VALID,0,
2009-09-26, 03:41:04,VALID,1008.97,VALID,0,VALID,99.4169,VALID,0,VALID,23.2654,VALID,11,VALID,0,
2009-09-26, 03:42:04,VALID,1008.95,VALID,0,VALID,99.4246,VALID,0,VALID,23.2671,VALID,11,VALID,0,
2009-09-26, 03:43:04,VALID,1008.96,VALID,0,VALID,99.4246,VALID,0,VALID,23.2476,VALID,11,VALID,0,
2009-09-26, 03:44:04,VALID,1008.96,VALID,0,VALID,99.4322,VALID,0,VALID,23.2246,VALID,11,VALID,0,
2009-09-26, 03:45:04,VALID,1008.94,VALID,0,VALID,99.4246,VALID,0.105969,VALID,23.2051,VALID,11,VALID,0,
2009-09-26, 03:46:04,VALID,1008.93,VALID,0,VALID,99.4398,VALID,0.105969,VALID,23.2069,VALID,11,VALID,0,
2009-09-26, 03:47:04,VALID,1008.94,VALID,0,VALID,99.4169,VALID,0,VALID,23.2069,VALID,11,VALID,0,
2009-09-26, 03:48:04,VALID,1008.9,VALID,0,VALID,99.3941,VALID,0.105969,VALID,23.2051,VALID,11,VALID,0,
2009-09-26, 03:49:04,VALID,1008.9,VALID,0,VALID,99.4093,VALID,0.105969,VALID,23.2246,VALID,11,VALID,0.597656,
2009-09-26, 03:50:04,VALID,1008.91,VALID,0,VALID,99.4093,VALID,0.105969,VALID,23.2459,VALID,11,VALID,0.43125,